sat.trackr.live / text

‹ back to catalog

ONEWEB-0339

NORAD 49205 · 2021-083V

PAYLOAD ACTIVE UNKNOWN

§ Identity

Operator
Country
UK
Launch date
2021-09-14
Launch site
TYMSC
Launch vehicle
Mass (kg)
RCS (m²)

Purposes: comms

External: N2YO · Heavens-Above · Gunter

§ Orbital elements

Epoch: 2026-09-19T10:23:13.168320Z

Period
109.63 min
Inclination
87.8916°
Eccentricity
0.0001947
Mean motion
13.13468819 rev/d
Perigee alt
1,208.3 km
Apogee alt
1,211.2 km
Semi-major
7,587.9 km
B*
-1.9387e-4
RAAN
301.4722°
Arg perigee
90.1188°
Mean anomaly
270.0164°
Rev number
24,326

§ Raw data

ONEWEB-03391 49205U 21083V   26262.43279130 -.00000058  00000+0 -19387-3 0  99962 49205  87.8916 301.4722 0001947  90.1188 270.0164 13.13468819243269

JSON: /api/v1/satellites/49205 · /tle

For live sub-satellite position, see the globe view (requires WebGL).

§ Visibility from observer

Set your observer location to see the next 7 days of passes ≥ 10°. The values pass through the URL so the page stays shareable.

No JS? Fill the form by hand. The geolocation button needs JavaScript.